BREEZE-M DEB, 34244

Orbit data source: Space-Track

BREEZE-M DEB, 34244 is space debris in HEO originally from a launch on Tue, 28 Feb 2006 UTC launched from the Tyuratam Missile And Space Complex (TTMTR). Debris objects in space refer to the collection of defunct objects orbiting the Earth. Examples of debris include non-operational satellites, rocket bodies, and fragments generated from explosions, collisions, or faulty payload assembly.

Loading next visibility...
Identifier
34244, 2006-006BK
Orbit
HEO
Country
Flag of CISCIS
Related business
Manufacturer
Khrunichev
Mission
Spacecraft
Bus & Motor
Unknown
Mass
Unknown
Launch date (UTC)
2006-02-28 (20 years ago)
Launch vehicle
Unknown
Launch site
Tyuratam Missile And Space Complex (TTMTR)
Object type
Payload
Rocket body
Debris
Shape & HBR
Unknown shape, 0.1 m
Radar Cross Section
Medium (>0.1 m² and <1 m²)

Expand to show TLE details & history
Last TLE update: 1 day ago

TLE from 1 day ago
0 BREEZE-M DEB
1 34244U 06006BK  26162.48142973  .00003726  00000-0  61586-2 0  9990
2 34244  52.0132 235.0721 4747569 133.0110 278.1265  5.76963452 45291
Epoch: 2026-06-11T11:33Z
TLE epoch observation values (Epoch: 2026-06-11T11:33:15.528Z)
Latitude
-0.00003°
Longitude
161.93035°
Altitude
8,662.336 km
Speed
4.76 km/s
True Right ascension
15h 40m 16s
True Declination
0° 00' 00"
Sunlit
Object was in daylight at epoch
Visualization orbit readout
Latitude
Unknown
Longitude
Unknown
Altitude
Unknown
Speed
Unknown
Apparent Right ascension
Unknown
Apparent Declination
Unknown
Sunlit
N/A
Visualization observer readout
Local Sidereal Time
23:00:53
Azimuth
Unknown
Elevation
Unknown
Doppler factor
Unknown
Orbital elements
Apogee altitude
12,987.633 km
Perigee altitude
519.093 km
Semi-major axis
13,131.5 km
Eccentricity
0.47476
Inclination
52.0132°
RAAN
235.0721°
Arg. of periapsis
133.011°
True anomaly
227.05411°
Mean anomaly
278.1265°
Eccentric anomaly
252.22366°
Mean motion
1.44235 °/min
Orbital period
249.59 mins
BSTAR
0.0061586
Loading maneuver chart data...
Computing Atmospheric mass density...
Loading historical data...
Loading historical data...
Loading historical data...
Loading historical data...
Loading historical data...
Loading historical data...
Loading historical data...

Documentation

Showing up to 5 results
|